Home > Weather > Regensburg > Past weeks

Flag for Germany Past Weather in Regensburg, Bavaria, Germany — Yesterday and Last 2 Weeks

Now
59 °F

Overcast.


Feels Like: 59 °F
Forecast: 49 / 73 °F
Wind: 2 mph from Northwest

Location: Hohenfels

Current Time: May 25, 2016 at 5:00:36 PM

Latest Report: May 25, 2016 at 3:58 PM


Visibility: N/A

Pressure: 29.98 "Hg

Humidity: 77%

Dew Point: 52 °F

Location of RegensburgLocation

Past Weather in Regensburg — Graph

°F

Regensburg Temperature Yesterday

Maximum temperature yesterday: 55 °F (at 1:58 PM)
Minimum temperature yesterday: 52 °F (at 12:59 AM)
Average temperature yesterday: 53 °F

High & Low Weather Summary for the Past Weeks

 TemperatureHumidityPressure
High82 °F (May 22, 4:58 PM)100% (May 10, 7:58 PM)30.16 "Hg (May 10, 7:58 PM)
Low32 °F (May 18, 2:58 AM)32% (May 22, 3:58 PM)29.42 "Hg (May 13, 4:58 AM)
Average53 °F78%29.88 "Hg
* Reported May 10 2:58 PM — May 25 2:58 PM, Regensburg, Weather by CustomWeather, © 2016

Note: Actual official high and low records may vary slightly from our data, if they occured in-between our weather recording intervals... More about our weather records

Advertising

Regensburg Weather History for the Previous 24 Hours

Scroll right to see more
 ConditionsComfort  
Time TempWeatherWind HumidityBarometerVisibility
2:58 PM
Wed, May 25
59 °FOvercast.3 mph72%29.98 "HgN/A
1:58 PM57 °FOvercast.1 mph77%29.98 "HgN/A
12:58 PM54 °FMostly cloudy.6 mph94%29.99 "HgN/A
11:58 AM54 °FLow clouds.5 mph94%29.99 "HgN/A
11:03 AM54 °FLow clouds.1 mph88%29.99 "HgN/A
10:58 AM54 °FLow clouds.2 mph88%29.99 "HgN/A
9:58 AM54 °FLow clouds.2 mph88%29.97 "HgN/A
8:58 AM52 °FLow clouds.3 mph94%29.97 "HgN/A
7:58 AM50 °FLow clouds.3 mph100%29.99 "HgN/A
6:58 AM50 °FLow clouds.3 mph100%29.98 "HgN/A
5:58 AM50 °FLow clouds.3 mph100%29.97 "HgN/A
4:58 AM50 °FLow clouds.3 mph100%29.96 "HgN/A
3:58 AM50 °FLow clouds.5 mph100%29.96 "HgN/A
2:58 AM50 °FMostly cloudy.6 mph100%29.96 "HgN/A
1:58 AM52 °FMostly cloudy.5 mph94%29.96 "HgN/A
1:03 AM52 °FLow clouds.3 mph94%29.95 "HgN/A
12:58 AM52 °FLight rain. Low clouds.2 mph94%29.95 "HgN/A
11:58 PM
Tue, May 24
52 °FLight rain. Low clouds.7 mph94%29.95 "HgN/A
10:58 PM52 °FLow clouds.8 mph94%29.95 "HgN/A
9:58 PM52 °FLow clouds.8 mph94%29.96 "HgN/A
9:01 PM52 °FLow clouds.7 mph94%29.93 "HgN/A
8:58 PM54 °FLow clouds.8 mph88%29.93 "HgN/A
7:58 PM54 °FLow clouds.8 mph88%29.92 "HgN/A
6:58 PM54 °FLow clouds.9 mph88%29.91 "HgN/A
5:58 PM54 °FLow clouds.7 mph88%29.91 "HgN/A
Weather by CustomWeather, © 2016

See weather overviewHow to use our weather pages